Regional Weather Roundup
Issued by NWS

Home | Current Version | Previous Version | Text Only | Print | Product List | Glossary Off
Versions: 1 2 3 4 5 6 7 8 9 10 11 12 13 14 15 16 17 18 19 20 21 22 23 24 25 26 27 28 29 30 31 32 33 34 35 36 37 38 39 40 41 42 43 44 45 46 47 48 49 50

000
ASUS43 KLOT 171406
RWRIL

ILLINOIS REGIONAL WEATHER ROUNDUP
NATIONAL WEATHER SERVICE CHICAGO/ROMEOVILLE IL
900 AM CDT WED SEP 17 2014

NOTE: "FAIR" INDICATES FEW OR NO CLOUDS BELOW 12,000 FEET WITH NO
SIGNIFICANT WEATHER AND/OR OBSTRUCTIONS TO VISIBILITY.

* THESE STATIONS ARE NOT UNDER NWS QUALITY CONTROL. THEY ALSO MAY NOT
  REPORT WEATHER SUCH AS PRECIPITATION OR FOG.

ILZ001-002-007-009-015-016-024-171500-
NORTHWEST ILLINOIS

CITY           SKY/WX    TMP DP  RH WIND       PRES   REMARKS
MOLINE         SUNNY     55  51  86 CALM      30.01F
STERLING*      SUNNY     55  48  76 SE3       30.03S
SAVANNA*       SUNNY     53  48  83 CALM      30.02F
$$

ILZ003-004-008-010-011-017-018-171500-
NORTH CENTRAL ILLINOIS

CITY           SKY/WX    TMP DP  RH WIND       PRES   REMARKS
ROCKFORD       MOSUNNY   54  48  80 CALM      30.06F
FREEPORT*      CLOUDY    52  49  90 CALM      30.04F
ROCHELLE*      SUNNY     52  46  79 CALM      30.04F
DE KALB*       MOSUNNY   52  46  78 CALM      30.04F
PERU*          SUNNY     55  49  81 CALM      30.04S
$$

ILZ005-006-012>014-019>023-171500-
NORTHEAST ILLINOIS

CITY           SKY/WX    TMP DP  RH WIND       PRES   REMARKS
CHICAGO-OHARE  MOSUNNY   56  46  69 W3        30.04F
CHICAGO-MIDWAY MOSUNNY   59  48  67 CALM      30.04F
AURORA         SUNNY     53  48  83 CALM      30.05F
LANSING*       SUNNY     54  51  89 CALM      30.04F
JOLIET*        SUNNY     53  51  95 CALM      30.05F
WAUKEGAN       SUNNY     58  47  66 W3        30.03F
DUPAGE AIRPORT SUNNY     56  49  77 CALM      30.04F
KANKAKEE*      SUNNY     52  50  93 CALM      30.05F
WHEELING       SUNNY     57  47  69 CALM      30.05F
MORRIS*        SUNNY     53  51  94 CALM      30.03F
ROMEOVILLE*    SUNNY     55  50  86 CALM      30.04F
NORTHERLY ISL    N/A     58  44  60 SW7         N/A
$$

LMZ740>746-171500-
SOUTHERN LAKE MICHIGAN

STATION/POSITION SKY/WX   TEMP    WIND        PRES    VSBY  WAVE
                          AIR SEA DIR/SP/G                  HT/PER
                          (F)     (DEG/KT/KT) (MB)    (MI)  (FT/S)
SOUTHERN BUOY              61 65  240/ 10/ 12 1017.2F         1/ 3
WAUKEGAN HARBOR            58     280/  6/  7   N/A
HARRISON CRIB              61     250/  1/  2   N/A
BURNHAM HARBOR             59     250/  4/  8   N/A
CALUMET HARBOR             56     210/  2/  4 1016.0F
MICHIGAN CITY              56     140/  6/  8   N/A
MICHIGAN CITY 6N           57 65  190/  6/  8   N/A           1/ 2
ST. JOSEPH                 58 66  150/ 10/ 12   N/A           1/ 3
$$

ILZ025>027-034>036-040-047-049-050-058-095>099-171500-
WEST-CENTRAL ILLINOIS

CITY           SKY/WX    TMP DP  RH WIND       PRES   REMARKS
QUINCY         CLOUDY    56  52  86 SE5       30.01S
GALESBURG*     CLOUDY    53  51  92 CALM      30.02S
MACOMB*        CLOUDY    52  52 100 SE3       30.04F FOG
JACKSONVILLE*  PTSUNNY   58  54  86 CALM      30.03S
PITTSFIELD*    CLOUDY    55  53  92 S5        30.03S FOG
$$

ILZ028>032-037-038-041>044-048-051>054-059>061-171500-
CENTRAL ILLINOIS

CITY           SKY/WX    TMP DP  RH WIND       PRES   REMARKS
PONTIAC        MOSUNNY   55  52  88 CALM      30.03F
DECATUR        MOSUNNY   57  53  86 S3        30.04S
PEORIA         PTSUNNY   59  52  77 S3        30.03S
LACON*         SUNNY     54  51  91 CALM      30.03S
LINCOLN*       PTSUNNY   56  53  88 CALM      30.03S
SPRINGFIELD    CLOUDY    56  52  86 CALM      30.05S
TAYLORVILLE    PTSUNNY   54  52  94 S5        30.05S FOG
$$

ILZ033-039-045-046-055>057-062-063-171500-
EAST-CENTRAL ILLINOIS

CITY           SKY/WX    TMP DP  RH WIND       PRES   REMARKS
CHAMPAIGN      SUNNY     56  53  90 E5        30.03F
DANVILLE*      SUNNY     54  51  92 CALM      30.03S
RANTOUL*       MOSUNNY   57  50  77 CALM      30.05S
MATTOON        SUNNY     56  52  86 E7        30.03F
PARIS*         SUNNY     55  55 100 CALM      30.06F FOG
$$

ILZ079-100>102-171500-
SOUTHWEST ILLINOIS

CITY           SKY/WX    TMP DP  RH WIND       PRES   REMARKS
BELLEVILLE     MOSUNNY   54  54 100 VRB2      30.04R
CAHOKIA*       CLOUDY    58  53  84 S6        30.05R
SPARTA*        PTSUNNY   54  51  92 SE5       30.06R
$$

ILZ064>066-069>071-074>076-080>082-084>086-088>090-092>094-171500-
SOUTH-CENTRAL ILLINOIS

CITY           SKY/WX    TMP DP  RH WIND       PRES   REMARKS
CARBONDALE     PTSUNNY   53  52  96 E5        30.05R FOG
CAIRO*         MOSUNNY   58  56  94 CALM      30.05R
EFFINGHAM*     HVY RAIN  55  53  92 E5        30.04F
MARION         SUNNY     57  55  94 S6        30.07R
MT. VERNON     SUNNY     55  50  82 E6        30.04F
CENTRALIA*     SUNNY     56  51  84 SE7       30.03F
SALEM*         SUNNY     56  53  89 SE5       30.04S
METROPOLIS*    SUNNY     57  57 100 CALM      30.04R
$$

ILZ067-068-072-073-078-083-087-091-171500-
SOUTHEAST ILLINOIS

CITY           SKY/WX    TMP DP  RH WIND       PRES   REMARKS
LAWRENCEVILLE  SUNNY     55  52  89 E5        30.07F FOG
FLORA*         MOSUNNY   52  52  99 E6        30.05F FOG
FAIRFIELD*     SUNNY    N/A N/A N/A E3        30.05S
HARRISBURG*    FOG       52  52 100 E5        30.05F VSB 1/4
ROBINSON*      MOSUNNY   55  55  99 CALM      30.08S FOG
CARMI*         SUNNY     56  56 100 CALM      30.05S FOG
$$

ABBREVIATIONS USED IN REMARKS
   TC - TEMPERATURE IN CELSIUS
  WCI - WIND CHILL INDEX
   HX - HEAT INDEX
  VSB - VISIBILITY
$$



USA.gov is the U.S. government's official web portal to all federal, state and local government web resources and services.